User: anonymous   Login
Location: Brno
(49.2000°N, 16.6330°E)
Time: 17:31:07
(UTC+01:00)
Language:

BREEZE M DEB (TANK) - Orbit

View from above orbital plane
View from above orbital plane
View from above satellite
View from above satellite

Ground track
Ground track

The orbit data is extracted from the following two-line orbital elements,

1 28359U 04022B   16337.12109220 +.00003644 +00000-0 +40194-3 0  9990
2 28359 049.4883 243.7294 4678579 060.3974 338.1446 06.19213136273082
Epoch (UTC): 02 December 2016 02:54:22
Eccentricity: 0.4678579
inclination: 49.4883°
perigee height: 288 km
apogee height: 12009 km
right ascension of ascending node: 243.7294°
argument of perigee: 60.3974°
revolutions per day: 6.19213136
mean anomaly at epoch: 338.1446°
orbit number at epoch: 27308

The dashed part of the orbit path shows where the satellite is in the earth's shadow,  

DLR